Tracking 18987 objects as of 25-Feb-2018
HD Live streaming from Space Station
objects crossing your sky now

FENGYUN 1C DEB

Track FENGYUN 1C DEB now!
10-day predictions


NORAD ID: 31709
Int'l Code: 1999-025CDG
Perigee: 752.4 km
Apogee: 1,027.3 km
Inclination: 98.0 °
Period: 102.6 minutes
Semi major axis: 7260 km
RCS: 0.0141 m2 (small)
Launch date: May 10, 1999
Source: People's Republic of China (PRC)
Launch site: Taiyaun Space Center, China (TSC)

Note: This is SATELLITE DEBRIS
aabbcc
Your satellite tracking list
Your tracking list is empty




NASA's NSSDC Master Catalog

Two Line Element Set (TLE):
1 31709U 99025CDG 18033.86891903  .00000765  00000-0  43985-3 0  9994
2 31709  98.0393 273.8796 0189267 260.4962  97.4773 14.03203665534636
Source of the keplerian elements: AFSPC